Location: Laas
(43.4693°N, 0.3073°E)
Time: 13:47:19
(UTC+00:00)

Cosmos 2263 Rocket - Pass Details

Date: 25 October 2020
Orbit: 822 x 850 km, 71.0° (Epoch: 24 November)

Event Time Altitude Azimuth Distance (km) Brightness Sun altitude
Rises 19:44:47 0° 340° (NNW) 3,419 5.8 -30.5°
Reaches altitude 10° 19:47:25 10° 348° (NNW) 2,483 4.9 -31.0°
Enters shadow 19:49:37 22° 2° (N) 1,781 3.9 -31.4°
